Temperature
10 9 9 9 9 9 9 8 8 8 8 8 8 8 8 8 8 8 8 7 7 7 7 6 5 5 5 5 5 5 5 5 4 4 4 4 3 3 3 3 3 3 3
9 9 9 9 9 8 8 8 8 8 8 8 8 8 8 8 7 7 7 7 7 7 7 6 5 5 4 4 4 4 4 4 4 4 3 3 3 3 3 3 2 2 2
9 9 9 8 8 8 8 8 7 7 7 8 8 7 7 7 7 7 7 7 7 7 7 7 6 5 5 4 4 4 4 3 3 3 3 3 3 2 2 2 2 2 2
8 8 8 8 8 8 7 7 7 7 7 7 7 7 7 7 7 7 7 7 7 7 7 6 6 6 5 4 4 4 3 3 3 3 2 2 2 2 2 2 2 2 2
8 8 8 8 8 7 7 7 7 7 7 7 7 7 7 7 7 7 7 7 7 7 7 7 6 6 6 5 5 4 3 3 3 2 2 2 2 2 2 1 1 1 2
9 8 8 8 7 7 7 7 7 7 6 6 6 6 6 6 6 7 7 7 7 7 7 7 6 6 6 6 5 4 4 3 3 2 2 2 1 1 1 1 1 1 1
9 8 8 8 7 7 7 7 6 6 6 6 5 5 6 6 6 7 7 7 7 7 7 7 7 6 6 6 5 5 4 3 3 2 2 2 1 1 1 1 1 1 1
9 9 8 8 7 7 7 6 6 6 6 5 5 4 4 5 6 7 7 7 7 7 7 7 7 6 6 6 5 5 5 4 3 2 2 2 1 1 1 1 1 1 1
9 8 8 8 7 7 7 6 6 6 5 5 5 4 3 3 4 5 5 5 5 5 5 6 6 6 6 6 5 5 4 4 3 2 2 1 1 1 1 1 0 1 1
8 8 8 7 7 7 6 6 6 5 5 4 4 4 4 3 3 3 4 4 4 4 4 4 4 4 4 5 5 5 4 4 3 3 2 1 1 1 1 0 0 0 0
8 8 8 7 7 7 6 6 6 5 5 4 4 4 3 3 2 1 1 2 3 4 4 4 3 3 3 3 3 4 4 3 3 3 2 1 1 0 0 0 0 -0 0
8 8 7 7 7 6 6 6 6 5 4 4 4 3 3 2 2 2 1 1 2 3 3 3 3 3 2 2 2 2 3 3 2 2 2 1 1 0 -0 -0 -0 -1 -1
8 8 7 7 7 6 6 6 5 5 4 4 4 3 3 3 2 2 1 0 1 1 2 2 2 2 2 2 2 2 1 2 1 1 1 1 0 -0 -0 -1 -1 -1 -1
7 7 7 7 6 6 6 5 5 5 4 4 3 3 3 2 2 2 1 1 -1 -1 -0 1 1 2 2 2 1 1 0 0 0 0 -0 -0 -0 -1 -1 -1 -1 -2 -2
7 6 6 6 6 6 5 5 4 4 4 3 3 3 2 2 2 1 1 0 -1 -3 -2 -0 -0 1 1 1 0 -0 -0 -0 -0 -1 -1 -1 -1 -1 -2 -2 -2 -2 -2
6 6 6 5 5 5 5 4 4 4 3 3 3 2 2 2 1 1 0 -0 -1 -2 -3 -1 -1 -0 -0 -1 -1 -1 -1 -1 -1 -2 -2 -2 -2 -2 -2 -2 -2 -3 -3
5 5 5 4 4 4 4 3 3 3 2 2 2 1 1 1 1 0 -0 -1 -2 -2 -4 -2 -2 -2 -2 -2 -2 -2 -2 -2 -2 -2 -3 -3 -3 -3 -3 -3 -3 -3 -3
5 4 4 3 3 3 2 2 2 2 1 1 1 1 1 0 -0 -0 -1 -1 -2 -2 -3 -3 -3 -3 -3 -2 -3 -3 -3 -3 -3 -3 -3 -3 -3 -3 -3 -3 -4 -4 -4
4 3 3 2 2 2 1 1 1 1 0 0 0 0 -0 -0 -1 -1 -1 -2 -2 -2 -3 -4 -4 -4 -4 -4 -4 -4 -4 -4 -4 -4 -4 -4 -4 -4 -4 -4 -4 -4 -4
2 2 1 1 1 1 0 0 -0 -0 -0 -0 -1 -1 -1 -1 -1 -1 -2 -2 -2 -3 -3 -4 -5 -5 -5 -5 -5 -5 -5 -4 -4 -4 -5 -5 -5 -5 -5 -4 -5 -4 -4
1 1 0 0 0 -0 -0 -1 -1 -1 -1 -1 -1 -1 -1 -1 -2 -2 -2 -2 -3 -3 -4 -5 -5 -5 -6 -6 -6 -5 -5 -5 -5 -5 -5 -5 -5 -5 -5 -5 -5 -5 -5
0 -0 -0 -1 -1 -1 -1 -2 -2 -2 -2 -2 -2 -2 -2 -2 -2 -2 -3 -3 -3 -3 -4 -4 -5 -5 -5 -5 -5 -6 -6 -6 -7 -6 -6 -6 -6 -6 -5 -5 -5 -5 -5
-0 -1 -1 -1 -1 -1 -2 -2 -2 -3 -3 -3 -3 -3 -3 -2 -3 -3 -3 -3 -3 -3 -3 -3 -4 -4 -4 -4 -5 -6 -6 -6 -6 -6 -6 -6 -6 -6 -5 -5 -5 -5 -6
-1 -2 -2 -2 -2 -2 -2 -3 -3 -3 -3 -3 -3 -3 -3 -3 -3 -3 -3 -4 -4 -4 -4 -4 -4 -4 -4 -4 -5 -5 -5 -6 -6 -6 -7 -7 -6 -6 -6 -6 -5 -6 -6
-2 -2 -3 -3 -3 -3 -3 -3 -4 -4 -4 -4 -4 -4 -4 -4 -4 -4 -4 -4 -4 -4 -4 -4 -4 -4 -4 -5 -5 -5 -6 -7 -7 -7 -7 -8 -7 -6 -6 -6 -6 -6 -6
-3 -3 -3 -3 -3 -3 -3 -4 -4 -4 -4 -4 -4 -4 -4 -4 -4 -4 -4 -4 -4 -4 -4 -4 -5 -5 -5 -5 -5 -5 -6 -6 -7 -7 -7 -7 -7 -7 -7 -6 -6 -6 -6
Wind_Speed
11 11 11 11 11 10 9 8 8 8 8 9 10 11 12 14 15 16 16 15 15 15 15 14 14 13 12 11 10 9 9 8 7 7 6 6 5 5 5 6 6 7 7
15 13 12 12 13 14 14 12 11 10 10 10 11 13 15 16 17 18 19 19 18 18 18 18 17 16 15 15 14 13 12 11 10 10 9 8 8 7 7 7 7 7 8
18 16 12 12 15 17 15 13 12 10 8 9 9 13 15 17 18 19 20 21 21 21 21 21 21 20 19 18 17 16 15 14 13 13 12 11 10 10 9 9 9 8 8
20 17 13 13 17 17 14 10 7 5 7 7 7 8 12 14 17 19 20 21 21 21 23 24 24 23 22 21 20 19 18 17 16 15 15 14 13 12 12 11 11 10 10
20 18 15 15 16 14 12 10 7 6 8 9 9 8 8 10 14 17 18 21 22 23 24 25 27 26 25 25 23 22 21 20 19 18 17 16 16 15 14 14 13 13 12
20 20 16 15 15 9 8 8 9 8 7 8 9 10 9 9 11 13 17 20 22 25 25 25 25 25 27 27 26 25 24 23 21 20 19 19 18 17 16 16 16 15 14
20 19 16 13 13 11 13 12 9 9 9 5 4 6 8 12 15 14 15 16 19 24 24 25 24 24 24 28 28 28 26 25 24 23 22 21 20 19 19 18 18 17 16
20 19 16 11 11 10 11 11 10 6 6 7 6 3 6 6 7 13 12 12 13 15 17 23 24 24 24 24 26 29 28 27 26 25 24 23 22 21 21 20 20 19 19
20 20 19 16 11 12 13 14 14 12 11 9 9 7 5 7 4 5 7 10 11 10 11 16 21 24 25 24 25 29 31 30 29 27 26 24 24 23 22 22 21 21 20
18 20 20 17 13 12 14 15 14 13 12 11 7 11 11 6 5 6 4 5 7 10 11 12 15 21 24 24 26 28 30 31 31 30 28 27 26 25 24 23 23 22 21
13 17 18 15 14 13 14 15 13 14 14 14 11 7 11 11 10 9 12 7 5 8 11 12 11 15 20 23 24 27 31 31 31 31 30 29 27 26 25 24 24 23 22
7 12 14 14 13 13 15 16 15 15 15 16 14 11 9 7 9 12 17 13 11 7 10 11 12 13 18 21 25 29 31 31 31 31 31 29 28 27 26 25 24 24 23
7 10 11 12 12 13 14 13 14 16 17 16 17 15 15 15 9 9 14 14 11 6 7 9 12 13 18 20 23 29 31 31 31 31 31 30 29 28 27 26 25 25 24
9 9 9 10 12 13 14 14 14 15 14 17 19 18 16 15 14 14 12 11 12 10 8 10 6 11 16 19 23 29 25 30 31 31 31 31 30 29 28 27 26 26 25
9 9 9 10 11 12 13 13 13 15 15 16 17 18 17 15 14 15 14 14 14 13 12 9 9 10 14 18 24 23 22 28 30 31 32 31 31 29 28 28 27 26 26
9 10 10 10 11 11 12 12 13 14 15 15 14 16 17 15 14 14 14 14 15 16 15 6 9 8 11 13 22 22 21 28 30 31 31 31 31 30 29 29 28 28 27
10 10 11 11 11 12 11 12 13 13 15 16 15 16 19 16 15 14 14 14 16 16 21 16 7 8 11 12 12 14 19 20 21 29 30 31 31 30 29 29 29 28 28
10 11 11 11 12 12 11 12 14 14 15 16 16 16 18 15 17 15 14 17 17 17 19 22 11 9 12 11 12 11 12 16 17 26 30 30 30 29 29 29 29 29 29
11 11 11 12 12 12 12 12 13 14 14 15 15 16 16 15 17 15 16 16 15 16 17 19 16 9 9 8 10 10 11 10 13 22 27 29 30 30 29 29 30 29 29
12 12 12 12 13 13 12 12 13 14 14 14 14 15 15 16 17 17 16 17 15 16 16 17 16 11 9 6 8 10 10 10 12 13 19 22 25 28 29 29 30 29 28
13 13 13 13 12 11 11 12 12 13 14 14 14 14 15 19 22 19 15 14 14 15 14 15 16 13 12 8 9 9 13 10 11 10 10 12 12 12 14 24 27 28 27
13 12 13 14 13 12 20 25 20 12 12 13 14 13 14 18 22 27 29 26 22 18 17 17 16 16 15 14 11 12 12 11 10 8 11 13 11 12 10 12 23 26 27
12 13 13 13 14 16 25 26 26 17 12 11 12 12 12 13 18 13 20 26 26 29 27 19 19 19 15 14 14 15 13 12 13 7 8 11 10 13 10 17 26 27 28
13 13 14 14 14 17 25 26 26 17 12 11 11 11 12 12 13 14 13 14 15 16 19 18 16 16 15 13 15 16 15 14 9 7 9 8 8 10 11 10 23 26 27
14 13 13 14 15 17 24 25 25 11 10 11 11 11 12 12 19 22 15 13 14 14 19 25 24 22 25 26 20 13 13 11 11 10 10 8 6 8 9 10 15 25 26
14 14 14 14 15 15 22 24 24 10 10 10 9 10 17 17 19 21 14 12 15 13 11 12 15 18 17 19 26 18 14 12 7 7 9 9 7 5 5 7 9 10 14
Wind_Direction
186 194 204 214 225 231 232 233 236 241 246 249 249 248 250 250 251 253 256 260 266 269 268 267 264 260 258 256 254 254 256 260 265 270 276 283 291 300 309 319 328 332 335
193 196 205 214 223 227 230 231 234 238 244 247 250 248 249 251 252 252 254 256 260 264 266 265 264 262 259 257 255 253 254 255 259 262 265 269 275 281 288 295 303 311 317
200 200 205 214 222 226 228 231 236 240 246 246 247 249 249 250 250 251 251 252 253 257 261 263 264 263 260 257 255 254 252 253 255 257 259 262 266 271 276 282 286 293 301
205 203 209 220 222 220 218 219 221 225 237 239 245 246 246 246 247 248 249 248 248 249 252 256 259 261 260 258 255 253 251 251 252 254 255 257 259 264 269 273 278 282 286
209 209 217 223 216 212 214 222 216 214 232 239 244 248 245 245 247 248 246 244 243 242 243 248 252 254 256 257 256 254 251 250 250 251 253 255 256 259 262 266 270 273 277
213 215 224 223 211 209 217 218 226 217 226 237 252 258 249 243 243 243 245 245 242 240 239 239 242 246 250 252 253 253 252 250 249 249 250 253 254 256 259 262 264 267 270
216 217 228 222 212 219 225 219 219 225 232 213 245 277 264 244 244 243 240 240 240 239 236 234 235 237 241 246 249 250 250 250 249 249 249 250 252 254 256 259 261 263 265
221 223 226 228 218 224 227 221 212 216 223 190 194 240 293 296 247 239 236 236 238 236 234 235 233 233 233 236 240 245 248 249 249 248 248 248 250 252 255 257 258 260 262
227 228 228 228 224 221 230 227 219 218 230 213 201 198 226 249 296 259 234 234 232 228 232 234 233 233 233 233 235 240 243 246 248 248 248 248 249 251 253 255 257 258 259
228 230 232 230 229 227 231 232 224 222 224 230 213 221 228 208 233 289 263 244 236 231 230 232 233 232 232 231 233 236 240 242 245 246 247 248 249 250 251 253 255 256 257
232 233 233 233 234 233 234 235 229 223 223 230 223 210 229 238 232 246 269 255 242 231 229 228 230 231 231 230 231 234 238 240 242 243 245 247 249 250 251 253 255 257 258
242 237 236 235 237 237 237 237 235 229 229 229 230 221 211 212 215 224 246 257 256 237 224 226 226 227 229 229 230 235 238 239 240 242 243 245 247 250 251 253 255 256 258
258 248 237 237 239 239 240 239 236 235 232 231 231 232 230 230 219 218 237 253 256 247 226 227 223 223 227 227 230 236 239 239 239 240 241 243 245 247 250 252 253 255 257
268 262 245 241 241 241 242 240 239 238 237 235 236 233 236 235 229 227 231 242 261 262 237 233 219 220 225 225 228 235 238 240 240 240 240 241 243 245 247 249 251 254 256
273 268 260 254 250 246 245 243 243 240 238 237 237 236 236 237 233 232 231 228 238 260 264 219 210 215 219 223 230 232 231 237 241 241 241 241 242 243 245 247 249 252 254
277 276 272 265 261 256 250 246 248 246 242 241 238 237 237 238 236 233 231 230 229 239 259 234 208 201 210 222 230 229 229 236 241 244 244 243 242 242 244 246 248 250 252
280 277 274 271 268 264 258 253 251 248 247 247 242 240 240 235 237 234 231 230 231 231 249 256 211 202 205 218 229 227 227 233 238 243 245 245 243 243 245 247 248 249 251
282 277 276 274 272 269 262 257 258 254 250 250 246 243 244 239 237 235 233 232 232 229 238 254 243 212 216 216 221 224 227 230 230 240 244 245 244 245 246 247 248 249 250
286 283 278 276 274 271 267 262 260 259 255 253 249 245 245 240 241 238 234 235 234 233 234 245 250 227 223 217 220 227 229 230 230 237 242 244 245 246 247 247 248 248 249
288 286 282 278 276 274 271 268 265 264 261 258 253 248 246 241 242 240 238 236 234 234 234 239 247 238 228 205 209 222 232 228 233 232 237 239 243 246 247 248 248 248 249
288 286 285 283 279 278 275 269 264 262 260 260 257 251 248 247 246 245 242 237 231 234 235 237 242 239 231 211 215 213 229 229 230 225 229 235 238 240 242 248 248 248 248
290 289 286 286 284 283 288 290 288 272 261 259 260 257 254 256 257 257 254 249 237 231 230 232 237 236 231 222 217 216 223 226 234 211 220 232 226 234 233 234 243 247 250
292 292 289 287 285 285 292 293 293 290 275 265 261 261 262 260 262 253 257 258 254 246 236 230 234 233 229 220 215 218 218 219 227 202 201 230 224 232 232 236 241 244 247
295 294 293 290 288 289 295 297 298 294 282 271 264 261 260 260 256 256 249 249 250 252 250 242 236 234 229 219 213 217 219 225 229 214 199 226 220 228 230 230 241 244 247
297 295 294 293 292 293 297 300 299 288 280 273 267 262 262 260 265 266 258 251 251 250 255 253 247 239 233 228 218 216 217 221 230 223 206 216 220 226 231 234 238 243 246
297 298 296 294 292 292 296 301 301 289 284 281 274 265 269 270 271 270 260 250 252 249 240 247 252 253 244 234 228 216 212 218 220 219 199 202 208 198 231 230 228 232 241
Height
1552 1554 1555 1556 1556 1557 1557 1557 1557 1557 1556 1556 1556 1555 1555 1555 1555 1554 1554 1553 1553 1552 1552 1552 1552 1552 1551 1551 1550 1549 1548 1548 1547 1547 1546 1546 1545 1545 1545 1544 1544 1544 1543
1549 1551 1552 1552 1553 1554 1554 1554 1554 1553 1552 1552 1551 1551 1551 1551 1550 1550 1550 1549 1549 1548 1548 1548 1548 1548 1548 1547 1547 1546 1545 1545 1544 1544 1543 1543 1542 1542 1542 1541 1541 1541 1541
1545 1546 1547 1548 1549 1550 1550 1549 1549 1548 1547 1547 1546 1547 1546 1546 1545 1545 1544 1544 1543 1543 1543 1542 1542 1542 1543 1543 1542 1542 1541 1541 1540 1540 1539 1539 1539 1538 1538 1538 1538 1537 1537
1540 1541 1542 1543 1544 1545 1544 1544 1543 1542 1542 1541 1540 1540 1540 1539 1538 1538 1537 1537 1537 1537 1537 1536 1536 1536 1536 1537 1537 1537 1536 1536 1535 1535 1535 1535 1534 1534 1534 1534 1534 1534 1534
1535 1536 1536 1537 1538 1538 1538 1537 1536 1536 1535 1534 1533 1532 1531 1531 1530 1530 1529 1529 1529 1529 1529 1529 1529 1529 1529 1529 1530 1530 1530 1530 1530 1530 1530 1529 1529 1529 1529 1529 1529 1529 1529
1529 1530 1530 1530 1530 1530 1530 1530 1529 1529 1528 1527 1526 1523 1522 1521 1520 1519 1519 1519 1519 1520 1520 1520 1521 1521 1521 1521 1522 1523 1523 1524 1524 1523 1523 1524 1524 1524 1524 1524 1524 1524 1525
1523 1523 1522 1522 1522 1522 1522 1522 1521 1520 1519 1520 1517 1513 1511 1510 1508 1507 1508 1508 1508 1509 1509 1510 1510 1511 1512 1512 1513 1514 1515 1516 1516 1517 1517 1517 1517 1517 1518 1518 1518 1519 1519
1516 1515 1515 1514 1514 1513 1512 1512 1512 1511 1510 1511 1510 1507 1501 1497 1494 1495 1495 1495 1496 1498 1498 1498 1499 1500 1501 1502 1503 1504 1505 1506 1508 1509 1509 1509 1510 1511 1511 1512 1512 1513 1513
1509 1508 1507 1506 1505 1504 1502 1502 1502 1501 1500 1500 1500 1501 1497 1488 1486 1484 1484 1484 1485 1486 1488 1489 1489 1490 1491 1491 1493 1494 1495 1496 1498 1499 1501 1501 1502 1503 1504 1505 1505 1506 1507
1502 1501 1499 1498 1496 1494 1493 1492 1492 1490 1490 1488 1488 1487 1487 1485 1484 1476 1473 1474 1474 1475 1477 1478 1479 1480 1481 1482 1482 1484 1485 1486 1487 1489 1491 1492 1494 1495 1496 1497 1498 1499 1499
1495 1493 1491 1490 1488 1486 1484 1483 1481 1480 1478 1477 1477 1475 1475 1474 1473 1471 1463 1461 1463 1462 1465 1466 1467 1468 1470 1470 1471 1473 1474 1475 1476 1478 1480 1482 1484 1486 1487 1488 1489 1491 1491
1489 1487 1484 1482 1479 1477 1475 1473 1471 1470 1468 1466 1466 1464 1463 1462 1460 1459 1455 1450 1450 1449 1452 1453 1453 1455 1458 1459 1460 1462 1463 1464 1465 1467 1469 1471 1474 1476 1478 1479 1480 1481 1483
1482 1480 1477 1474 1471 1468 1466 1464 1461 1459 1457 1455 1454 1452 1451 1449 1450 1449 1447 1442 1440 1437 1438 1437 1439 1442 1445 1447 1448 1450 1451 1453 1454 1456 1458 1461 1463 1465 1467 1469 1470 1472 1474
1475 1472 1469 1465 1462 1459 1456 1454 1450 1448 1446 1444 1442 1441 1439 1437 1438 1437 1436 1436 1431 1427 1424 1423 1426 1429 1432 1434 1436 1438 1439 1441 1443 1445 1447 1450 1452 1454 1456 1458 1460 1462 1464
1468 1465 1461 1457 1454 1450 1447 1444 1440 1437 1435 1432 1430 1429 1427 1426 1426 1425 1425 1425 1425 1418 1410 1410 1414 1416 1421 1423 1424 1426 1427 1429 1431 1433 1436 1439 1441 1443 1446 1448 1449 1451 1453
1461 1456 1452 1448 1444 1441 1437 1434 1429 1426 1424 1420 1419 1417 1414 1414 1413 1413 1413 1412 1412 1410 1402 1396 1401 1405 1409 1411 1413 1414 1415 1418 1420 1422 1425 1427 1430 1432 1435 1437 1439 1441 1443
1452 1447 1443 1438 1434 1430 1427 1423 1418 1415 1412 1409 1407 1405 1402 1402 1401 1400 1400 1400 1399 1399 1392 1385 1392 1394 1397 1400 1402 1403 1405 1406 1408 1410 1413 1416 1419 1421 1424 1426 1428 1430 1433
1443 1438 1433 1428 1424 1420 1416 1412 1408 1404 1401 1397 1395 1393 1391 1391 1389 1388 1388 1386 1386 1386 1384 1377 1379 1383 1385 1388 1391 1392 1394 1395 1397 1399 1402 1404 1407 1410 1412 1415 1417 1420 1422
1433 1428 1423 1418 1414 1409 1405 1401 1397 1393 1390 1386 1384 1382 1380 1379 1377 1376 1375 1374 1374 1374 1373 1370 1367 1372 1374 1376 1379 1381 1382 1384 1385 1388 1390 1393 1396 1399 1401 1404 1406 1409 1411
1424 1419 1414 1409 1404 1399 1395 1391 1386 1382 1378 1375 1373 1371 1369 1367 1365 1365 1364 1362 1363 1363 1362 1360 1359 1361 1363 1365 1368 1369 1370 1372 1374 1377 1379 1382 1384 1387 1390 1393 1396 1398 1401
1415 1409 1404 1398 1394 1389 1385 1380 1376 1371 1368 1364 1362 1360 1358 1357 1354 1353 1352 1351 1351 1351 1351 1350 1349 1351 1352 1354 1354 1357 1360 1362 1363 1366 1368 1370 1373 1375 1378 1381 1385 1387 1390
1406 1400 1394 1389 1384 1380 1376 1371 1367 1362 1358 1354 1351 1349 1348 1346 1344 1343 1342 1341 1341 1340 1339 1339 1338 1339 1340 1343 1346 1348 1350 1352 1353 1355 1358 1359 1362 1364 1367 1370 1373 1376 1379
1396 1390 1385 1380 1375 1370 1366 1362 1358 1353 1349 1345 1342 1339 1337 1335 1334 1332 1331 1330 1330 1330 1329 1329 1327 1326 1330 1333 1337 1338 1340 1341 1342 1346 1349 1348 1352 1353 1357 1360 1363 1365 1368
1388 1382 1376 1371 1366 1361 1357 1353 1348 1344 1339 1336 1333 1331 1328 1325 1324 1322 1320 1318 1318 1318 1320 1319 1317 1318 1321 1324 1326 1329 1331 1333 1335 1337 1339 1340 1342 1344 1347 1350 1353 1355 1357
1380 1374 1368 1363 1357 1352 1349 1344 1340 1335 1330 1327 1324 1322 1319 1316 1315 1314 1311 1309 1308 1307 1309 1309 1309 1310 1312 1314 1317 1320 1321 1324 1324 1326 1329 1331 1332 1336 1338 1339 1342 1344 1346
1372 1366 1360 1355 1350 1344 1340 1336 1332 1327 1323 1319 1316 1314 1311 1309 1306 1305 1303 1301 1299 1298 1299 1299 1300 1301 1302 1304 1307 1308 1311 1313 1314 1317 1319 1322 1324 1328 1328 1328 1331 1333 1335